| time (UTC) | temp F | wind direction | speed knots | gust knots | rain 1hr in | rain 24hr in | rain mn in | humidity % | barometer mb |
| 20260906133205 | 51 | 263 | 0.0 | 0.0 | 0.00 | 0.03 | 0.03 | 87 | 1026.5 |
| 20260906132656 | 51 | 263 | 0.0 | 0.0 | 0.00 | 0.03 | 0.03 | 87 | 1026.6 |
| 20260906132137 | 51 | 263 | 0.0 | 0.0 | 0.00 | 0.03 | 0.03 | 87 | 1026.6 |
| 20260906131621 | 51 | 263 | 0.0 | 0.0 | 0.00 | 0.03 | 0.03 | 87 | 1026.6 |
| 20260906131125 | 51 | 263 | 0.0 | 0.0 | 0.00 | 0.03 | 0.03 | 87 | 1026.8 |
| 20260906130625 | 52 | 263 | 0.0 | 0.0 | 0.00 | 0.03 | 0.03 | 86 | 1026.8 |
| 20260906130106 | 52 | 263 | 0.0 | 0.0 | 0.00 | 0.03 | 0.03 | 86 | 1026.8 |
| 20260906125549 | 52 | 263 | 0.0 | 0.0 | 0.00 | 0.03 | 0.03 | 87 | 1026.7 |
| 20260906125055 | 52 | 263 | 0.0 | 0.0 | 0.00 | 0.03 | 0.03 | 87 | 1026.7 |
| 20260906124558 | 52 | 263 | 0.0 | 0.0 | 0.00 | 0.03 | 0.03 | 87 | 1026.7 |
| 20260906124102 | 52 | 263 | 0.0 | 0.0 | 0.00 | 0.03 | 0.03 | 87 | 1026.5 |
| 20260906123558 | 52 | 263 | 0.0 | 1.7 | 0.00 | 0.03 | 0.03 | 87 | 1026.5 |
| 20260906123038 | 53 | 263 | 0.0 | 0.9 | 0.00 | 0.03 | 0.03 | 87 | 1026.5 |
| 20260906122532 | 53 | 263 | 0.0 | 2.6 | 0.00 | 0.03 | 0.03 | 87 | 1026.0 |
| 20260906122024 | 53 | 263 | 0.0 | 2.6 | 0.00 | 0.03 | 0.03 | 87 | 1026.0 |
| 20260906121525 | 53 | 263 | 0.9 | 1.7 | 0.00 | 0.03 | 0.03 | 86 | 1026.0 |
| 20260906121031 | 53 | 263 | 0.9 | 3.5 | 0.00 | 0.03 | 0.03 | 86 | 1026.0 |
| 20260906120516 | 53 | 263 | 0.9 | 0.9 | 0.00 | 0.03 | 0.03 | 86 | 1026.0 |
| 20260906120011 | 53 | 263 | 0.9 | 3.5 | 0.00 | 0.03 | 0.03 | 86 | 1026.0 |
| 20260906115515 | 53 | 263 | 0.9 | 1.7 | 0.00 | 0.03 | 0.03 | 86 | 1026.1 |
| 20260906115001 | 53 | 263 | 0.9 | 1.7 | 0.00 | 0.03 | 0.03 | 86 | 1026.1 |
| 20260906114506 | 53 | 263 | 0.9 | 1.7 | 0.00 | 0.03 | 0.03 | 85 | 1026.1 |
| 20260906114015 | 53 | 263 | 0.9 | 1.7 | 0.00 | 0.03 | 0.03 | 85 | 1026.1 |
| 20260906113459 | 53 | 263 | 0.0 | 1.7 | 0.00 | 0.03 | 0.03 | 85 | 1026.1 |
| 20260906112939 | 53 | 263 | 0.0 | 0.0 | 0.00 | 0.03 | 0.03 | 84 | 1026.1 |
| 20260906112433 | 53 | 263 | 0.0 | 0.0 | 0.00 | 0.03 | 0.03 | 84 | 1026.0 |
| 20260906111313 | 53 | 263 | 0.0 | 0.0 | 0.00 | 0.03 | 0.03 | 84 | 1026.0 |
| 20260906110756 | 54 | 263 | 0.0 | 0.0 | 0.00 | 0.03 | 0.03 | 84 | 1026.0 |
| 20260906110241 | 54 | 263 | 0.0 | 0.0 | 0.00 | 0.03 | 0.03 | 84 | 1026.0 |
| 20260906105727 | 54 | 263 | 0.0 | 0.0 | 0.00 | 0.03 | 0.03 | 84 | 1025.9 |
| 20260906105208 | 54 | 263 | 0.0 | 2.6 | 0.00 | 0.03 | 0.03 | 84 | 1025.9 |
| 20260906104715 | 54 | 263 | 0.9 | 2.6 | 0.00 | 0.03 | 0.03 | 84 | 1025.9 |
| 20260906104209 | 54 | 263 | 0.9 | 2.6 | 0.00 | 0.03 | 0.03 | 83 | 1025.6 |
| 20260906103710 | 55 | 263 | 0.0 | 2.6 | 0.00 | 0.03 | 0.03 | 83 | 1025.6 |
| 20260906103159 | 55 | 263 | 0.0 | 1.7 | 0.00 | 0.03 | 0.03 | 83 | 1025.6 |
| 20260906102701 | 55 | 263 | 0.0 | 0.0 | 0.00 | 0.03 | 0.03 | 83 | 1025.5 |
| 20260906102159 | 55 | 263 | 0.0 | 2.6 | 0.00 | 0.03 | 0.03 | 82 | 1025.5 |
| 20260906100427 | 56 | 263 | 0.0 | 0.0 | 0.00 | 0.03 | 0.03 | 81 | 1025.4 |
| 20260906095913 | 56 | 263 | 0.0 | 0.0 | 0.00 | 0.03 | 0.03 | 81 | 1025.4 |
| 20260906094725 | 56 | 263 | 0.0 | 0.0 | 0.00 | 0.03 | 0.03 | 80 | 1025.4 |
| 20260906094231 | 57 | 263 | 0.0 | 0.0 | 0.00 | 0.03 | 0.03 | 80 | 1025.2 |
| 20260906093734 | 57 | 263 | 0.0 | 0.0 | 0.00 | 0.03 | 0.03 | 80 | 1025.2 |
| 20260906093219 | 57 | 263 | 0.0 | 0.0 | 0.00 | 0.03 | 0.03 | 79 | 1025.2 |
| 20260906092701 | 57 | 263 | 0.0 | 0.0 | 0.00 | 0.03 | 0.03 | 79 | 1025.2 |
| 20260906092158 | 57 | 263 | 0.0 | 1.7 | 0.00 | 0.03 | 0.03 | 79 | 1025.2 |
| 20260906091702 | 57 | 263 | 0.0 | 2.6 | 0.00 | 0.03 | 0.03 | 79 | 1025.2 |
| 20260906091159 | 57 | 263 | 0.9 | 2.6 | 0.00 | 0.03 | 0.03 | 78 | 1025.2 |
| 20260906090652 | 57 | 263 | 0.9 | 4.3 | 0.00 | 0.03 | 0.03 | 78 | 1025.2 |
| 20260906090145 | 58 | 263 | 1.7 | 4.3 | 0.00 | 0.03 | 0.03 | 77 | 1025.2 |
| 20260906085642 | 58 | 263 | 1.7 | 4.3 | 0.00 | 0.03 | 0.03 | 76 | 1025.2 |
| 20260906085137 | 58 | 263 | 1.7 | 3.5 | 0.00 | 0.03 | 0.03 | 76 | 1025.2 |
| 20260906084623 | 58 | 263 | 1.7 | 3.5 | 0.00 | 0.03 | 0.03 | 75 | 1025.2 |
| 20260906084123 | 58 | 263 | 0.9 | 3.5 | 0.00 | 0.03 | 0.03 | 74 | 1025.0 |
| 20260906083618 | 58 | 263 | 0.9 | 3.5 | 0.00 | 0.03 | 0.03 | 74 | 1025.0 |
| 20260906082454 | 58 | 263 | 0.9 | 3.5 | 0.00 | 0.03 | 0.03 | 74 | 1024.9 |
| 20260906081957 | 58 | 263 | 0.9 | 3.5 | 0.00 | 0.03 | 0.03 | 75 | 1024.9 |
| 20260906080839 | 58 | 263 | 1.7 | 4.3 | 0.00 | 0.03 | 0.03 | 75 | 1024.7 |
| 20260906080334 | 58 | 263 | 1.7 | 4.3 | 0.00 | 0.03 | 0.03 | 74 | 1024.7 |
| 20260906075217 | 59 | 263 | 0.9 | 4.3 | 0.00 | 0.03 | 0.03 | 74 | 1024.5 |
| 20260906074051 | 59 | 263 | 1.7 | 5.2 | 0.00 | 0.03 | 0.03 | 73 | 1024.4 |
| 20260906073545 | 59 | 263 | 2.6 | 5.2 | 0.00 | 0.03 | 0.03 | 73 | 1024.4 |
| 20260906073047 | 59 | 263 | 2.6 | 5.2 | 0.00 | 0.03 | 0.03 | 72 | 1024.4 |
| 20260906072549 | 59 | 263 | 2.6 | 5.2 | 0.00 | 0.03 | 0.03 | 73 | 1024.3 |
| 20260906071425 | 59 | 263 | 1.7 | 5.2 | 0.00 | 0.03 | 0.03 | 73 | 1024.3 |
| 20260906070301 | 59 | 263 | 0.9 | 5.2 | 0.00 | 0.03 | 0.03 | 73 | 1024.2 |
| 20260906065809 | 59 | 263 | 1.7 | 5.2 | 0.00 | 0.03 | 0.03 | 73 | 1024.0 |
| 20260906065255 | 59 | 263 | 2.6 | 5.2 | 0.00 | 0.03 | 0.03 | 72 | 1024.0 |
| 20260906064742 | 59 | 263 | 2.6 | 5.2 | 0.00 | 0.03 | 0.03 | 72 | 1024.0 |
| 20260906063600 | 59 | 263 | 1.7 | 7.0 | 0.00 | 0.03 | 0.03 | 71 | 1023.8 |
| 20260906063109 | 59 | 263 | 1.7 | 7.0 | 0.00 | 0.03 | 0.03 | 72 | 1023.8 |
| 20260906062555 | 59 | 263 | 1.7 | 7.0 | 0.00 | 0.03 | 0.03 | 71 | 1023.8 |
| 20260906062058 | 59 | 263 | 2.6 | 7.0 | 0.00 | 0.03 | 0.03 | 73 | 1023.8 |
| 20260906061553 | 59 | 263 | 2.6 | 7.0 | 0.00 | 0.03 | 0.03 | 72 | 1023.8 |
| 20260906061047 | 60 | 263 | 2.6 | 7.0 | 0.00 | 0.03 | 0.03 | 73 | 1023.8 |
| 20260906060553 | 60 | 263 | 2.6 | 7.0 | 0.00 | 0.03 | 0.03 | 73 | 1023.8 |
| 20260906060050 | 60 | 263 | 2.6 | 5.2 | 0.00 | 0.03 | 0.03 | 74 | 1023.8 |
| 20260906055600 | 60 | 263 | 2.6 | 8.7 | 0.00 | 0.03 | 0.03 | 74 | 1023.7 |
| 20260906055043 | 60 | 263 | 1.7 | 8.7 | 0.00 | 0.03 | 0.03 | 75 | 1023.7 |
| 20260906054536 | 60 | 263 | 2.6 | 8.7 | 0.00 | 0.03 | 0.03 | 75 | 1023.7 |
| 20260906053412 | 60 | 263 | 3.5 | 8.7 | 0.00 | 0.03 | 0.03 | 74 | 1023.4 |
| 20260906052908 | 60 | 263 | 1.7 | 8.7 | 0.00 | 0.03 | 0.03 | 75 | 1023.4 |
| 20260906052416 | 60 | 263 | 2.6 | 8.7 | 0.00 | 0.03 | 0.03 | 76 | 1023.3 |
| 20260906051917 | 60 | 263 | 3.5 | 8.7 | 0.00 | 0.03 | 0.03 | 76 | 1023.3 |
| 20260906051425 | 60 | 263 | 2.6 | 7.8 | 0.00 | 0.03 | 0.03 | 76 | 1023.3 |
| 20260906050908 | 59 | 263 | 2.6 | 7.8 | 0.00 | 0.03 | 0.03 | 76 | 1023.3 |
| 20260906050410 | 59 | 263 | 2.6 | 7.0 | 0.00 | 0.03 | 0.03 | 76 | 1023.3 |
| 20260906045906 | 59 | 263 | 2.6 | 7.0 | 0.00 | 0.03 | 0.03 | 77 | 1023.2 |
| 20260906045404 | 59 | 263 | 2.6 | 7.0 | 0.00 | 0.03 | 0.03 | 77 | 1023.2 |
| 20260906044900 | 59 | 263 | 2.6 | 7.0 | 0.00 | 0.03 | 0.03 | 78 | 1023.2 |
| 20260906044407 | 59 | 263 | 2.6 | 7.0 | 0.00 | 0.03 | 0.03 | 78 | 1023.2 |
| 20260906043251 | 59 | 263 | 2.6 | 7.0 | 0.00 | 0.03 | 0.03 | 78 | 1023.3 |
| 20260906042759 | 59 | 263 | 3.5 | 8.7 | 0.00 | 0.03 | 0.03 | 79 | 1023.4 |
| 20260906041622 | 59 | 263 | 4.3 | 8.7 | 0.00 | 0.03 | 0.03 | 79 | 1023.4 |
| 20260906041132 | 59 | 263 | 3.5 | 7.8 | 0.00 | 0.03 | 0.03 | 79 | 1023.5 |
| 20260906040633 | 59 | 263 | 2.6 | 7.8 | 0.00 | 0.04 | 0.03 | 79 | 1023.5 |
| 20260906035518 | 59 | 263 | 3.5 | 7.8 | 0.00 | 0.04 | 0.03 | 80 | 1023.8 |
| 20260906035016 | 59 | 263 | 3.5 | 7.8 | 0.00 | 0.04 | 0.03 | 80 | 1023.8 |
| 20260906033838 | 58 | 263 | 3.5 | 7.8 | 0.00 | 0.04 | 0.03 | 80 | 1023.8 |
| 20260906033333 | 58 | 263 | 3.5 | 7.8 | 0.00 | 0.04 | 0.03 | 80 | 1023.8 |
| 20260906032825 | 58 | 263 | 3.5 | 7.8 | 0.00 | 0.04 | 0.03 | 79 | 1023.8 |
| 20260906032306 | 58 | 263 | 2.6 | 8.7 | 0.00 | 0.04 | 0.03 | 79 | 1023.8 |
| 20260906031814 | 58 | 263 | 2.6 | 8.7 | 0.00 | 0.04 | 0.03 | 79 | 1023.8 |
| 20260906031259 | 58 | 263 | 3.5 | 8.7 | 0.00 | 0.04 | 0.03 | 79 | 1023.9 |
| 20260906030801 | 58 | 263 | 3.5 | 8.7 | 0.00 | 0.04 | 0.03 | 79 | 1023.9 |
| 20260906030258 | 58 | 263 | 2.6 | 7.8 | 0.00 | 0.04 | 0.03 | 79 | 1023.9 |
| 20260906025803 | 58 | 263 | 2.6 | 7.8 | 0.00 | 0.04 | 0.03 | 79 | 1024.0 |
| 20260906025259 | 59 | 263 | 2.6 | 7.0 | 0.00 | 0.04 | 0.03 | 79 | 1024.0 |
| 20260906024805 | 59 | 263 | 1.7 | 7.0 | 0.00 | 0.04 | 0.03 | 78 | 1024.0 |
| 20260906024256 | 59 | 263 | 2.6 | 8.7 | 0.00 | 0.04 | 0.03 | 77 | 1023.9 |
| 20260906023804 | 60 | 263 | 2.6 | 8.7 | 0.00 | 0.04 | 0.03 | 76 | 1023.9 |
| 20260906023253 | 60 | 263 | 3.5 | 8.7 | 0.00 | 0.04 | 0.03 | 76 | 1023.9 |
| 20260906022745 | 61 | 263 | 3.5 | 8.7 | 0.00 | 0.04 | 0.03 | 76 | 1024.1 |
| 20260906022245 | 60 | 263 | 1.7 | 7.8 | 0.00 | 0.04 | 0.03 | 78 | 1024.1 |
| 20260906021113 | 60 | 263 | 2.6 | 7.0 | 0.00 | 0.04 | 0.03 | 77 | 1024.3 |
| 20260906020613 | 60 | 263 | 2.6 | 7.0 | 0.00 | 0.04 | 0.03 | 77 | 1024.3 |
| 20260906015443 | 59 | 263 | 2.6 | 7.0 | 0.00 | 0.04 | 0.03 | 80 | 1024.4 |
| 20260906014947 | 58 | 263 | 2.6 | 7.0 | 0.00 | 0.04 | 0.03 | 81 | 1024.4 |
| 20260906014451 | 58 | 263 | 2.6 | 7.0 | 0.00 | 0.04 | 0.03 | 81 | 1024.4 |
| 20260906013317 | 59 | 263 | 1.7 | 7.0 | 0.00 | 0.04 | 0.03 | 85 | 1024.3 |
| 20260906012812 | 58 | 263 | 0.9 | 7.0 | 0.00 | 0.04 | 0.03 | 85 | 1024.4 |
| 20260906012307 | 57 | 263 | 0.0 | 3.5 | 0.00 | 0.04 | 0.03 | 88 | 1024.4 |
| 20260906011751 | 56 | 263 | 0.9 | 3.5 | 0.00 | 0.04 | 0.03 | 87 | 1024.4 |
| 20260906011247 | 56 | 263 | 0.9 | 3.5 | 0.00 | 0.04 | 0.03 | 87 | 1024.3 |
| 20260906010736 | 56 | 263 | 0.9 | 3.5 | 0.00 | 0.04 | 0.03 | 87 | 1024.3 |
| 20260906010231 | 56 | 263 | 0.9 | 3.5 | 0.00 | 0.04 | 0.03 | 87 | 1024.3 |
| 20260906005730 | 56 | 263 | 0.9 | 3.5 | 0.00 | 0.04 | 0.03 | 88 | 1024.3 |
| 20260906004604 | 56 | 263 | 0.0 | 3.5 | 0.00 | 0.04 | 0.03 | 88 | 1024.3 |
| 20260906004044 | 56 | 263 | 0.0 | 3.5 | 0.00 | 0.04 | 0.03 | 88 | 1024.3 |
| 20260906003545 | 56 | 263 | 0.9 | 3.5 | 0.00 | 0.04 | 0.03 | 88 | 1024.3 |
| 20260906003047 | 56 | 263 | 1.7 | 5.2 | 0.00 | 0.04 | 0.03 | 88 | 1024.3 |
| 20260906002528 | 56 | 263 | 1.7 | 5.2 | 0.00 | 0.04 | 0.03 | 87 | 1024.3 |
| 20260906002016 | 56 | 263 | 1.7 | 9.6 | 0.00 | 0.04 | 0.03 | 87 | 1024.3 |
| 20260906000854 | 57 | 263 | 2.6 | 9.6 | 0.00 | 0.10 | 0.03 | 87 | 1024.3 |
| 20260906000340 | 57 | 263 | 1.7 | 9.6 | 0.00 | 0.10 | 0.03 | 88 | 1024.3 |
| 20260905235840 | 56 | 263 | 0.0 | 2.6 | 0.00 | 0.10 | 0.03 | 88 | 1024.1 |
| 20260905235337 | 55 | 263 | 0.0 | 1.7 | 0.00 | 0.10 | 0.03 | 88 | 1024.1 |
| 20260905234211 | 55 | 263 | 0.0 | 0.0 | 0.00 | 0.10 | 0.03 | 88 | 1023.9 |
| 20260905232453 | 56 | 263 | 1.7 | 5.2 | 0.00 | 0.10 | 0.03 | 87 | 1023.8 |
| 20260905231956 | 57 | 263 | 0.0 | 5.2 | 0.00 | 0.10 | 0.03 | 88 | 1023.8 |
| 20260905231436 | 57 | 263 | 0.0 | 0.9 | 0.00 | 0.10 | 0.03 | 89 | 1023.8 |
| 20260905230922 | 57 | 263 | 0.0 | 0.0 | 0.00 | 0.11 | 0.03 | 89 | 1023.5 |
| 20260905230408 | 57 | 263 | 0.0 | 0.0 | 0.00 | 0.18 | 0.03 | 90 | 1023.5 |
| 20260905225917 | 56 | 263 | 0.0 | 0.0 | 0.00 | 0.18 | 0.03 | 90 | 1023.5 |
| 20260905225413 | 56 | 263 | 0.0 | 1.7 | 0.00 | 0.18 | 0.03 | 91 | 1023.4 |
| 20260905224905 | 56 | 263 | 0.0 | 0.0 | 0.00 | 0.18 | 0.03 | 91 | 1023.4 |
| 20260905224407 | 56 | 263 | 0.0 | 0.0 | 0.00 | 0.18 | 0.03 | 91 | 1023.4 |
| 20260905223852 | 55 | 263 | 0.0 | 0.0 | 0.00 | 0.18 | 0.03 | 92 | 1023.2 |
| 20260905223341 | 55 | 263 | 0.0 | 0.0 | 0.00 | 0.18 | 0.03 | 92 | 1023.2 |
| 20260905222843 | 55 | 263 | 0.0 | 0.0 | 0.00 | 0.18 | 0.03 | 92 | 1022.8 |
| 20260905222345 | 54 | 263 | 0.0 | 0.0 | 0.00 | 0.18 | 0.03 | 91 | 1022.8 |
| 20260905221217 | 54 | 263 | 0.0 | 0.0 | 0.00 | 0.18 | 0.03 | 92 | 1022.7 |
| 20260905220727 | 53 | 263 | 0.0 | 0.0 | 0.00 | 0.18 | 0.03 | 92 | 1022.7 |
| 20260905220233 | 53 | 263 | 0.0 | 0.0 | 0.00 | 0.18 | 0.03 | 91 | 1022.7 |
| 20260905215730 | 53 | 263 | 0.0 | 0.0 | 0.00 | 0.18 | 0.03 | 91 | 1022.6 |
| 20260905215214 | 53 | 263 | 0.0 | 0.0 | 0.00 | 0.17 | 0.02 | 91 | 1022.6 |
| 20260905214718 | 53 | 263 | 0.0 | 0.0 | 0.00 | 0.17 | 0.02 | 91 | 1022.6 |
| 20260905214206 | 53 | 263 | 0.0 | 1.7 | 0.00 | 0.17 | 0.02 | 91 | 1022.3 |
| 20260905213648 | 52 | 263 | 0.0 | 0.0 | 0.00 | 0.17 | 0.02 | 91 | 1022.3 |
| 20260905213139 | 52 | 263 | 0.0 | 0.0 | 0.00 | 0.17 | 0.02 | 91 | 1022.3 |
| 20260905212635 | 52 | 263 | 0.0 | 0.0 | 0.00 | 0.17 | 0.02 | 90 | 1022.2 |
| 20260905211456 | 52 | 263 | 0.0 | 0.0 | 0.00 | 0.17 | 0.02 | 90 | 1022.2 |
| 20260905210942 | 53 | 263 | 0.0 | 0.0 | 0.00 | 0.17 | 0.02 | 90 | 1021.8 |
| 20260905210437 | 53 | 263 | 0.0 | 0.0 | 0.00 | 0.17 | 0.02 | 90 | 1021.8 |
| 20260905205945 | 53 | 263 | 0.0 | 0.0 | 0.00 | 0.17 | 0.02 | 90 | 1021.8 |
| 20260905205439 | 53 | 263 | 0.0 | 0.0 | 0.00 | 0.17 | 0.02 | 90 | 1021.7 |
| 20260905204948 | 53 | 263 | 0.0 | 0.0 | 0.00 | 0.17 | 0.02 | 90 | 1021.7 |
| 20260905204444 | 53 | 263 | 0.0 | 0.0 | 0.00 | 0.17 | 0.02 | 90 | 1021.7 |
| 20260905203928 | 53 | 263 | 0.0 | 0.0 | 0.00 | 0.17 | 0.02 | 90 | 1021.7 |
| 20260905203429 | 53 | 263 | 0.0 | 0.0 | 0.00 | 0.17 | 0.02 | 90 | 1021.7 |
| 20260905202913 | 53 | 263 | 0.0 | 0.0 | 0.00 | 0.17 | 0.02 | 90 | 1021.7 |
| 20260905202412 | 53 | 263 | 0.0 | 0.0 | 0.00 | 0.17 | 0.02 | 90 | 1021.7 |
| 20260905201900 | 53 | 263 | 0.0 | 0.0 | 0.00 | 0.17 | 0.02 | 90 | 1021.7 |
| 20260905201355 | 53 | 263 | 0.0 | 0.0 | 0.00 | 0.17 | 0.02 | 90 | 1021.5 |
| 20260905200838 | 53 | 263 | 0.0 | 0.0 | 0.00 | 0.17 | 0.02 | 90 | 1021.5 |
| 20260905200322 | 53 | 263 | 0.0 | 0.0 | 0.00 | 0.17 | 0.02 | 90 | 1021.5 |
| 20260905195202 | 53 | 263 | 0.0 | 0.0 | 0.00 | 0.17 | 0.02 | 89 | 1021.3 |
| 20260905194643 | 53 | 263 | 0.0 | 0.0 | 0.00 | 0.18 | 0.02 | 89 | 1021.3 |
| 20260905194122 | 53 | 263 | 0.0 | 0.0 | 0.00 | 0.18 | 0.02 | 90 | 1021.2 |
| 20260905193627 | 54 | 263 | 0.0 | 0.0 | 0.00 | 0.18 | 0.02 | 89 | 1021.2 |
| 20260905193131 | 54 | 263 | 0.0 | 0.9 | 0.00 | 0.18 | 0.02 | 89 | 1021.2 |
| 20260905192623 | 54 | 263 | 0.9 | 7.0 | 0.00 | 0.18 | 0.02 | 89 | 1021.2 |
| 20260905191439 | 54 | 263 | 0.0 | 2.6 | 0.00 | 0.17 | 0.01 | 89 | 1021.2 |
| 20260905190920 | 54 | 263 | 0.0 | 0.0 | 0.00 | 0.17 | 0.01 | 89 | 1021.1 |
| 20260905190414 | 54 | 263 | 0.0 | 0.0 | 0.00 | 0.17 | 0.01 | 89 | 1021.1 |
| 20260905185915 | 54 | 263 | 0.0 | 0.0 | 0.00 | 0.17 | 0.01 | 89 | 1021.1 |
| 20260905185405 | 54 | 263 | 0.0 | 0.0 | 0.00 | 0.17 | 0.01 | 89 | 1020.9 |
| 20260905184900 | 54 | 263 | 0.0 | 0.0 | 0.00 | 0.17 | 0.01 | 89 | 1020.9 |
| 20260905184351 | 54 | 263 | 0.0 | 0.0 | 0.00 | 0.17 | 0.01 | 89 | 1020.7 |
| 20260905183858 | 54 | 263 | 0.0 | 1.7 | 0.00 | 0.17 | 0.01 | 89 | 1020.7 |
| 20260905183359 | 54 | 263 | 0.0 | 1.7 | 0.00 | 0.17 | 0.01 | 89 | 1020.7 |
| 20260905182845 | 54 | 263 | 0.0 | 0.0 | 0.00 | 0.17 | 0.01 | 88 | 1020.7 |
| 20260905181718 | 54 | 263 | 0.0 | 2.6 | 0.00 | 0.16 | 0.00 | 88 | 1020.7 |
| 20260905181224 | 54 | 263 | 1.7 | 5.2 | 0.00 | 0.16 | 0.00 | 88 | 1020.7 |
| 20260905180716 | 54 | 263 | 1.7 | 5.2 | 0.00 | 0.16 | 0.00 | 88 | 1020.7 |
| 20260905180210 | 54 | 263 | 0.9 | 5.2 | 0.00 | 0.16 | 0.00 | 88 | 1020.7 |
| 20260905175715 | 55 | 263 | 1.7 | 5.2 | 0.00 | 0.16 | 0.00 | 88 | 1020.7 |
| 20260905174544 | 55 | 263 | 1.7 | 5.2 | 0.00 | 0.15 | 0.00 | 87 | 1020.7 |
| 20260905172747 | 55 | 263 | 0.9 | 7.0 | 0.00 | 0.15 | 0.00 | 87 | 1020.9 |
| 20260905172254 | 55 | 263 | 0.9 | 7.0 | 0.00 | 0.15 | 0.00 | 87 | 1020.9 |
| 20260905171127 | 55 | 263 | 2.6 | 7.0 | 0.00 | 0.15 | 0.00 | 87 | 1021.1 |
| 20260905170018 | 55 | 263 | 0.9 | 5.2 | 0.00 | 0.15 | 0.00 | 87 | 1021.1 |
| 20260905165513 | 55 | 263 | 1.7 | 5.2 | 0.00 | 0.15 | 0.00 | 87 | 1021.1 |
| 20260905164346 | 55 | 263 | 2.6 | 7.0 | 0.00 | 0.15 | 0.00 | 86 | 1021.1 |
| 20260905163832 | 55 | 263 | 2.6 | 7.8 | 0.00 | 0.15 | 0.00 | 86 | 1021.1 |
| 20260905163334 | 55 | 263 | 2.6 | 7.8 | 0.00 | 0.15 | 0.00 | 86 | 1021.1 |
| 20260905162831 | 55 | 263 | 2.6 | 7.8 | 0.00 | 0.15 | 0.00 | 86 | 1021.1 |
| 20260905162331 | 55 | 263 | 1.7 | 7.8 | 0.00 | 0.15 | 0.00 | 86 | 1021.1 |
| 20260905161143 | 55 | 263 | 1.7 | 5.2 | 0.00 | 0.15 | 0.00 | 85 | 1021.2 |
| 20260905160629 | 55 | 263 | 1.7 | 4.3 | 0.00 | 0.15 | 0.00 | 85 | 1021.2 |
| 20260905160117 | 55 | 263 | 0.9 | 4.3 | 0.00 | 0.15 | 0.00 | 85 | 1021.2 |
| 20260905155604 | 55 | 263 | 0.9 | 5.2 | 0.00 | 0.15 | 0.00 | 84 | 1021.2 |
| 20260905155050 | 56 | 263 | 1.7 | 5.2 | 0.00 | 0.15 | 0.00 | 84 | 1021.2 |
| 20260905153951 | 56 | 263 | 1.7 | 5.2 | 0.00 | 0.15 | 0.00 | 83 | 1021.1 |
| 20260905153500 | 56 | 263 | 1.7 | 5.2 | 0.00 | 0.15 | 0.00 | 83 | 1021.1 |
| 20260905152955 | 56 | 263 | 1.7 | 5.2 | 0.00 | 0.15 | 0.00 | 82 | 1021.1 |
| 20260905152502 | 56 | 263 | 1.7 | 5.2 | 0.00 | 0.15 | 0.00 | 82 | 1021.1 |
| 20260905151338 | 56 | 263 | 0.9 | 4.3 | 0.00 | 0.15 | 0.00 | 80 | 1021.1 |
| 20260905150822 | 56 | 263 | 0.0 | 5.2 | 0.00 | 0.15 | 0.00 | 80 | 1021.1 |
| 20260905150320 | 56 | 263 | 0.9 | 5.2 | 0.00 | 0.15 | 0.00 | 80 | 1021.1 |
| 20260905145823 | 56 | 263 | 1.7 | 9.6 | 0.00 | 0.15 | 0.00 | 79 | 1021.1 |
| 20260905145306 | 56 | 263 | 2.6 | 9.6 | 0.00 | 0.15 | 0.00 | 79 | 1021.1 |
| 20260905144757 | 56 | 263 | 2.6 | 9.6 | 0.00 | 0.15 | 0.00 | 79 | 1021.1 |
| 20260905144245 | 56 | 263 | 1.7 | 9.6 | 0.00 | 0.15 | 0.00 | 79 | 1021.0 |
| 20260905143115 | 56 | 263 | 1.7 | 7.0 | 0.00 | 0.15 | 0.00 | 79 | 1021.0 |
| 20260905142618 | 56 | 263 | 2.6 | 9.6 | 0.00 | 0.15 | 0.15 | 79 | 1021.1 |
| 20260905142107 | 56 | 263 | 3.5 | 9.6 | 0.00 | 0.15 | 0.15 | 79 | 1021.1 |
| 20260905141613 | 56 | 263 | 4.3 | 11.3 | 0.00 | 0.15 | 0.15 | 79 | 1021.1 |
| 20260905140441 | 56 | 263 | 4.3 | 11.3 | 0.00 | 0.15 | 0.15 | 79 | 1021.1 |
| 20260905134648 | 56 | 263 | 2.6 | 7.8 | 0.00 | 0.16 | 0.15 | 81 | 1021.0 |
| 20260905134129 | 56 | 263 | 2.6 | 8.7 | 0.00 | 0.16 | 0.15 | 81 | 1020.8 |
| 20260905133616 | 56 | 263 | 2.6 | 8.7 | 0.00 | 0.16 | 0.15 | 80 | 1020.8 |